Weather reports worldwide

Advertisment
Murcia/San Javier, Spain (8433): temperature & dewpoint: 10.11.2018 05:00:00 - 16.11.2018 05:00:00 (CET)Murcia/San Javier, Spain (8433): wind speed: 10.11.2018 05:00:00 - 16.11.2018 05:00:00 (CET)Murcia/San Javier, Spain (8433): wind direction: 10.11.2018 05:00:00 - 16.11.2018 05:00:00 (CET)Murcia/San Javier, Spain (8433): reduced air pressure: 10.11.2018 05:00:00 - 16.11.2018 05:00:00 (CET)Murcia/San Javier, Spain (8433): visibility: 10.11.2018 05:00:00 - 16.11.2018 05:00:00 (CET)
Date & Time tt [°C] td [°C] ff [km/h] ff [kn] dd ppp [hPa] vv [km]
16.11.2018 05:00:00 18,5 17,1 21 11 NE 1017,9 -
16.11.2018 04:00:00 18,3 17,3 18 10 NE 1017,8 -
16.11.2018 03:00:00 18,4 17,7 22 12 NE 1017,7 -
16.11.2018 02:00:00 18,4 17,7 24 13 ENE 1017,9 -
16.11.2018 01:00:00 18,4 17,9 15 8 ENE 1018,4 -
16.11.2018 00:00:00 18,3 17,7 13 7 ENE 1018,4 -
15.11.2018 23:00:00 18,4 17,7 15 8 NE 1018,4 -
15.11.2018 22:00:00 18,2 17,7 13 7 ENE 1018,3 10
15.11.2018 21:00:00 17,4 15,9 5 3 NNW 1018,0 -
15.11.2018 20:00:00 17,7 15,5 9 5 N 1017,5 -
15.11.2018 19:00:00 17,9 16,4 9 5 NE 1017,0 20
15.11.2018 18:00:00 18,4 16,0 9 5 NE 1016,8 -
15.11.2018 17:00:00 19,4 16,7 11 6 NNE 1016,6 -
15.11.2018 16:00:00 18,9 16,2 9 5 NE 1016,4 20
15.11.2018 15:00:00 19,4 16,1 13 7 NE 1016,4 -
15.11.2018 14:00:00 20,1 15,3 16 9 NNE 1016,6 -
15.11.2018 13:00:00 19,8 16,2 18 10 NE 1016,7 20
15.11.2018 12:00:00 18,2 15,9 18 10 NNE 1017,3 -
15.11.2018 11:00:00 17,7 15,8 18 10 NNE 1017,5 -
15.11.2018 10:00:00 16,4 15,0 18 10 N 1017,0 15
15.11.2018 09:00:00 16,1 15,3 15 8 N 1016,3 -
15.11.2018 08:00:00 16,5 15,9 18 10 NE 1016,2 -
15.11.2018 07:00:00 16,5 16,0 21 11 NE 1015,7 15
15.11.2018 06:00:00 16,8 15,7 21 11 NNE 1015,9 -
15.11.2018 05:00:00 15,5 15,5 15 8 WNW 1015,8 -
15.11.2018 04:00:00 17,5 17,5 37 20 NE 1015,0 -
15.11.2018 03:00:00 17,9 17,6 37 20 NE 1015,8 -
15.11.2018 02:00:00 17,9 17,7 35 19 NE 1016,0 -
15.11.2018 01:00:00 18,6 17,1 35 19 NNE 1017,0 -
15.11.2018 00:00:00 18,4 16,9 34 18 NNE 1017,3 -
14.11.2018 23:00:00 18,5 17,2 34 18 NNE 1018,0 -
14.11.2018 22:00:00 18,5 17,1 37 20 NNE 1018,4 20
14.11.2018 21:00:00 18,6 17,1 35 19 NNE 1018,7 -
14.11.2018 20:00:00 18,6 17,1 31 17 NNE 1019,0 -
14.11.2018 19:00:00 18,6 16,9 31 17 NE 1019,1 20
14.11.2018 18:00:00 18,5 16,8 29 16 NE 1018,8 -
14.11.2018 17:00:00 18,7 16,3 34 18 NE 1019,0 -
14.11.2018 16:00:00 19,5 16,2 29 16 NE 1019,4 15
14.11.2018 15:00:00 19,8 16,2 29 16 NE 1019,5 -
14.11.2018 14:00:00 19,7 16,3 29 16 NE 1020,0 -
14.11.2018 13:00:00 19,6 16,6 28 15 NE 1020,6 15
14.11.2018 12:00:00 19,4 16,2 31 17 NE 1021,6 -
14.11.2018 11:00:00 19,8 16,1 24 13 NNE 1022,3 -
14.11.2018 10:00:00 18,5 16,1 22 12 NNE 1022,4 13
14.11.2018 09:00:00 17,4 15,6 15 8 NNE 1022,4 -
14.11.2018 08:00:00 16,9 15,6 13 7 N 1022,1 -
14.11.2018 07:00:00 17,0 15,0 13 7 N 1022,0 15
14.11.2018 06:00:00 17,5 14,2 21 11 NNE 1021,9 -
14.11.2018 05:00:00 17,9 15,2 28 15 NNE 1021,9 -
14.11.2018 04:00:00 17,8 15,6 22 12 NNE 1022,2 -
14.11.2018 03:00:00 18,4 16,2 34 18 NE 1022,6 -
14.11.2018 02:00:00 18,4 16,3 31 17 NE 1023,0 -
14.11.2018 01:00:00 18,2 16,2 28 15 NE 1023,7 -
14.11.2018 00:00:00 15,8 14,3 8 4 N 1024,0 -
13.11.2018 23:00:00 18,0 15,8 15 8 NNE 1023,6 -
13.11.2018 22:00:00 18,4 15,8 26 14 NE 1023,5 15
13.11.2018 21:00:00 18,7 16,0 22 12 NE 1023,4 -
13.11.2018 20:00:00 18,7 16,1 22 12 ENE 1023,2 -
13.11.2018 19:00:00 18,9 16,3 24 13 ENE 1023,2 15
13.11.2018 18:00:00 18,8 15,4 22 12 ENE 1022,9 -
13.11.2018 17:00:00 19,6 16,2 28 15 NE 1022,6 -
13.11.2018 16:00:00 20,1 16,9 28 15 ENE 1022,2 15
13.11.2018 15:00:00 20,9 16,9 24 13 ENE 1022,2 -
13.11.2018 14:00:00 20,3 16,6 21 11 NE 1022,6 -
13.11.2018 13:00:00 20,9 16,1 18 10 NE 1022,9 20
13.11.2018 12:00:00 20,4 15,1 16 9 NE 1023,2 -
13.11.2018 11:00:00 20,6 14,0 9 5 NNE 1023,3 -
13.11.2018 10:00:00 16,3 13,3 0 0 N 1022,5 25
13.11.2018 09:00:00 13,4 12,6 0 0 N 1022,0 -
13.11.2018 08:00:00 12,1 11,3 5 3 WNW 1021,2 -
13.11.2018 07:00:00 12,5 11,2 0 0 N 1020,4 9
13.11.2018 06:00:00 13,8 12,4 0 0 N 1019,9 -
13.11.2018 05:00:00 13,8 12,5 11 6 WNW 1019,6 -
13.11.2018 04:00:00 14,2 13,1 11 6 NW 1019,3 -
13.11.2018 03:00:00 14,4 13,3 9 5 NW 1019,4 -
13.11.2018 02:00:00 14,6 13,8 13 7 NW 1019,2 -
13.11.2018 01:00:00 14,5 13,9 11 6 NW 1019,1 -
13.11.2018 00:00:00 14,0 13,5 11 6 NNW 1018,6 -
12.11.2018 23:00:00 14,5 13,9 9 5 WNW 1018,5 -
12.11.2018 22:00:00 16,1 14,9 9 5 N 1018,1 9
12.11.2018 21:00:00 15,2 14,4 8 4 NNW 1018,1 -
12.11.2018 20:00:00 15,6 14,3 5 3 NW 1017,9 -
12.11.2018 19:00:00 17,0 14,5 5 3 NW 1017,3 9
12.11.2018 18:00:00 18,0 15,3 8 4 N 1016,7 -
12.11.2018 17:00:00 19,0 15,9 4 2 NNE 1016,5 -
12.11.2018 16:00:00 19,6 15,9 11 6 ENE 1016,2 9
12.11.2018 15:00:00 20,5 15,9 9 5 E 1016,0 -
12.11.2018 14:00:00 20,0 15,4 11 6 E 1016,1 -
12.11.2018 13:00:00 19,5 13,0 5 3 SE 1016,5 8
12.11.2018 12:00:00 19,6 14,5 8 4 SE 1016,8 -
12.11.2018 11:00:00 19,6 13,3 4 2 WSW 1016,8 -
12.11.2018 10:00:00 16,4 13,4 5 3 W 1016,3 15
12.11.2018 09:00:00 12,2 11,4 9 5 WSW 1015,8 -
12.11.2018 08:00:00 9,4 9,3 9 5 SSW 1015,2 -
12.11.2018 07:00:00 9,7 9,4 5 3 WSW 1014,4 5
12.11.2018 06:00:00 10,4 10,1 8 4 W 1013,9 -
12.11.2018 05:00:00 11,2 11,0 9 5 WSW 1014,0 -
12.11.2018 04:00:00 12,1 12,1 11 6 WNW 1014,1 -
12.11.2018 03:00:00 10,8 10,6 4 2 WSW 1013,8 -
12.11.2018 02:00:00 12,4 12,3 5 3 NW 1013,9 -
12.11.2018 01:00:00 11,9 11,7 9 5 NNW 1014,2 -
12.11.2018 00:00:00 11,9 11,7 13 7 NW 1014,8 -
11.11.2018 23:00:00 12,1 11,5 5 3 NNW 1015,0 -
11.11.2018 22:00:00 13,1 12,2 8 4 NNW 1014,9 9
11.11.2018 21:00:00 14,4 14,1 5 3 NE 1014,7 -
11.11.2018 20:00:00 14,3 13,4 8 4 NW 1014,7 -
11.11.2018 19:00:00 16,4 15,4 5 3 SE 1014,2 20
11.11.2018 18:00:00 17,2 15,0 15 8 SSE 1014,0 -
11.11.2018 17:00:00 19,0 15,5 16 9 SSE 1014,3 -
11.11.2018 16:00:00 20,2 15,4 18 10 SSE 1014,6 25
11.11.2018 15:00:00 21,4 15,8 15 8 SSE 1014,9 -
11.11.2018 14:00:00 21,3 15,6 15 8 SSE 1015,5 -
11.11.2018 13:00:00 20,8 15,1 13 7 ESE 1016,4 30
11.11.2018 12:00:00 20,0 14,5 9 5 SSE 1017,2 -
11.11.2018 11:00:00 18,4 12,4 8 4 SSE 1017,7 -
11.11.2018 10:00:00 17,9 11,7 2 1 SSE 1017,9 40
11.11.2018 09:00:00 14,2 10,8 4 2 SSW 1017,8 -
11.11.2018 08:00:00 10,5 9,1 8 4 W 1017,1 -
11.11.2018 07:00:00 9,9 8,7 11 6 NW 1016,4 15
11.11.2018 06:00:00 10,6 8,8 0 0 N 1016,6 -
11.11.2018 05:00:00 11,4 9,6 5 3 W 1016,5 -
11.11.2018 04:00:00 11,1 9,2 8 4 W 1016,4 -
11.11.2018 03:00:00 11,2 9,2 4 2 N 1016,8 -
11.11.2018 02:00:00 11,7 9,8 11 6 WSW 1016,9 -
11.11.2018 01:00:00 12,2 10,3 8 4 SW 1016,8 -
11.11.2018 00:00:00 12,1 10,7 11 6 WNW 1016,9 -
10.11.2018 23:00:00 12,9 10,6 8 4 NW 1017,1 -
10.11.2018 22:00:00 13,4 10,9 8 4 WNW 1016,9 10
10.11.2018 21:00:00 15,3 12,4 9 5 WSW 1016,5 -
10.11.2018 20:00:00 16,1 12,6 4 2 WSW 1016,4 -
10.11.2018 19:00:00 17,2 13,5 15 8 SW 1015,8 30
10.11.2018 18:00:00 17,9 13,2 24 13 SSW 1015,1 -
10.11.2018 17:00:00 20,0 12,9 21 11 SSW 1015,2 -
10.11.2018 16:00:00 21,1 10,0 22 12 SSW 1015,3 -
10.11.2018 15:00:00 21,9 9,4 24 13 SSW 1015,4 -
10.11.2018 14:00:00 21,6 11,3 24 13 SSW 1015,5 -
10.11.2018 13:00:00 21,8 8,9 13 7 S 1016,7 40
10.11.2018 12:00:00 20,9 7,5 11 6 SSW 1017,8 -
10.11.2018 11:00:00 20,0 8,3 11 6 SSW 1018,4 -
10.11.2018 10:00:00 17,9 7,2 13 7 W 1018,6 40
10.11.2018 09:00:00 13,3 6,6 13 7 WSW 1018,4 -
10.11.2018 08:00:00 9,9 5,7 11 6 W 1018,2 -
10.11.2018 07:00:00 10,6 5,4 13 7 SW 1017,7 20
10.11.2018 06:00:00 11,5 5,6 9 5 SSW 1017,7 -
10.11.2018 05:00:00 12,1 5,1 4 2 S 1017,9 -

tt = temperature
td = dewpoint
ff = wind speed
dd = wind direction
ppp = reduced air pressure
vv = visibility

Next stations